Wind_Speed
21 24 25 26 28 30 32 31 30 29 29 29 29 31 34 36 37 38 37 34 30 27 25 22 20 18 17 17 16 16 18 19 20 20 19 19 20 21 21 22 22 22 23 23
21 21 23 26 28 29 30 30 29 29 29 29 30 30 33 36 36 35 35 34 31 28 26 25 22 20 19 16 15 14 15 18 21 21 21 23 23 23 23 23 24 25 25 26
21 20 23 25 28 29 29 29 28 28 29 28 27 28 31 34 35 34 34 34 32 30 27 25 24 22 19 17 16 16 16 18 21 22 23 24 25 26 25 24 25 26 27 28
20 21 22 24 26 28 28 28 28 28 30 29 27 26 28 30 32 32 32 33 33 31 28 27 25 24 21 19 19 19 19 19 21 23 25 26 26 26 27 28 27 28 29 30
20 22 23 23 24 26 26 28 28 29 29 29 28 26 26 27 29 30 30 30 31 31 29 27 27 25 23 23 23 23 23 24 25 27 29 29 29 30 31 30 30 29 29 29
20 22 22 22 24 26 27 29 29 30 30 29 28 28 28 28 28 28 29 29 30 31 30 29 28 27 27 26 26 25 26 26 28 30 31 32 32 33 33 33 32 31 30 30
17 20 21 22 24 25 27 28 29 30 30 30 29 29 30 30 30 30 30 30 31 32 32 31 31 31 31 30 30 29 29 30 31 34 34 34 36 37 36 36 34 33 32 32
13 17 19 20 21 23 26 27 28 29 30 30 30 31 31 31 32 32 32 32 33 33 33 33 32 32 32 31 32 32 32 34 35 37 38 39 40 40 39 39 38 35 35 35
12 16 18 20 21 22 24 26 27 28 29 30 32 32 33 33 34 34 34 35 35 35 35 35 35 35 34 35 36 37 37 38 40 41 41 41 41 40 40 40 39 37 36 35
13 15 18 19 21 22 23 25 27 28 28 29 32 33 33 34 34 36 37 37 38 39 39 39 39 39 39 40 41 42 42 42 43 44 44 45 45 44 44 42 40 39 38 37
12 15 17 19 21 21 22 23 25 27 28 29 31 33 34 35 36 37 37 38 39 40 41 41 41 42 43 43 44 45 45 46 46 45 45 46 46 45 44 42 41 41 41 40
10 13 15 18 19 20 21 22 23 25 26 28 30 32 34 36 37 38 38 39 41 42 43 43 44 44 44 44 45 46 47 48 48 48 47 46 45 45 45 45 44 44 43 43
8 11 13 15 17 18 20 21 22 23 25 27 29 32 32 34 36 37 38 40 41 42 44 44 45 45 45 45 46 46 47 47 48 47 46 47 47 46 46 46 45 45 46 46
5 9 10 13 15 16 18 19 21 22 25 26 29 31 32 33 35 36 38 40 41 42 43 43 44 44 45 43 43 43 44 45 46 47 47 47 47 47 46 46 46 47 49 50
0 4 8 10 12 15 17 19 20 23 25 27 29 30 32 34 36 37 38 39 40 40 41 42 43 42 41 40 41 40 41 42 43 43 44 45 46 46 46 46 47 48 49 50
4 2 3 7 10 13 16 18 21 23 26 28 30 32 32 33 34 35 37 38 38 39 39 40 40 39 38 36 37 38 38 37 37 38 38 39 41 43 45 46 47 47 48 50
6 5 4 4 7 10 12 14 17 20 23 26 28 29 30 31 32 33 34 35 35 35 36 36 34 33 34 33 32 32 33 32 33 34 35 36 38 40 41 44 45 46 48 49
7 7 6 6 8 9 11 13 15 18 20 22 24 25 26 27 27 28 29 30 31 31 31 32 31 30 30 30 29 29 29 30 31 33 34 36 38 40 42 44 46 48 50 51
8 8 7 8 8 10 11 13 14 16 18 19 20 22 23 24 24 24 24 24 24 25 26 27 27 27 27 26 27 28 29 31 32 33 34 36 38 40 42 43 46 48 49 51
9 9 9 9 10 11 11 13 14 15 16 16 17 18 18 19 20 20 20 20 20 21 22 22 22 23 23 23 25 27 28 30 32 33 34 36 37 39 40 42 44 45 47 48
12 12 12 12 13 13 13 14 14 14 14 14 14 14 13 14 15 16 16 16 16 17 17 17 18 19 21 22 24 25 27 29 30 32 33 35 36 38 39 41 43 44 45 46
14 14 14 14 14 14 15 14 14 13 13 12 12 12 11 11 12 13 13 14 14 14 15 15 16 18 19 20 22 23 25 26 27 29 30 32 34 36 38 40 41 42 43 43
14 15 15 15 15 15 14 13 13 12 12 11 10 10 10 10 11 11 11 12 12 13 13 14 15 17 18 19 20 21 22 23 24 26 28 30 32 34 35 36 37 37 37 37
15 16 17 17 16 16 15 14 13 12 11 10 9 8 8 9 9 9 10 10 11 12 12 13 14 15 16 17 18 19 19 21 23 24 26 27 29 30 32 32 32 32 31 31
17 17 17 17 17 16 15 14 12 11 10 9 8 7 7 7 8 8 9 10 10 11 12 13 13 14 15 15 16 16 17 19 21 22 23 25 26 28 28 27 27 26 25 24
18 18 18 18 17 16 14 13 11 9 8 8 7 7 7 7 7 7 8 9 10 11 12 12 13 13 13 14 14 15 16 18 19 20 21 23 24 25 25 24 23 22 20 19
Wind_Direction
228 222 218 217 217 216 215 213 212 215 219 220 218 214 216 224 228 230 232 233 232 231 227 227 229 229 230 229 233 239 241 247 252 252 256 262 267 265 267 267 269 275 277 279
226 220 216 216 215 215 214 213 212 214 219 222 222 220 220 225 230 232 233 232 231 229 229 228 229 231 234 237 243 244 246 250 255 259 261 264 269 269 271 270 272 277 279 281
226 219 216 215 214 214 214 213 212 213 217 222 224 225 225 227 231 234 235 233 231 229 228 227 228 231 232 235 239 241 250 256 257 262 266 277 275 274 277 278 276 278 281 284
224 219 216 214 213 213 213 212 211 212 216 220 222 223 226 228 230 232 233 232 230 229 227 228 231 232 235 239 242 248 254 260 264 268 271 275 274 274 277 278 280 284 284 282
220 218 216 214 212 211 209 211 211 212 216 220 221 221 221 223 224 226 227 228 228 228 230 231 233 237 238 241 246 251 256 261 264 269 272 274 280 279 279 281 284 286 287 287
220 219 217 213 211 209 209 212 213 212 215 218 219 219 218 220 222 224 225 225 225 227 230 231 235 240 242 244 248 255 258 264 268 271 274 277 278 281 282 283 286 289 290 290
218 216 214 212 210 208 209 211 212 213 215 218 218 220 221 221 222 224 224 225 227 229 231 235 237 240 244 248 252 256 260 266 269 273 276 277 278 283 286 290 294 293 291 291
207 206 206 206 208 208 209 211 212 214 217 218 219 222 223 223 225 227 228 230 232 234 237 240 242 245 249 254 257 259 262 266 269 272 274 279 282 284 288 292 294 295 294 292
186 192 196 200 202 205 208 211 213 217 219 221 222 225 227 227 228 230 232 235 238 240 243 247 249 252 254 256 259 262 264 266 269 273 276 279 280 283 288 292 294 293 292 291
181 186 191 197 202 205 208 212 215 218 221 224 226 228 230 231 233 234 237 240 243 246 248 251 254 256 258 260 262 263 266 269 271 273 276 278 281 283 288 290 291 290 290 287
185 191 195 200 203 205 209 215 219 222 225 228 231 233 235 236 238 240 242 244 247 250 253 256 259 261 263 264 264 265 265 267 269 271 274 277 280 282 284 286 287 286 286 286
192 198 203 205 208 211 215 219 224 227 229 232 235 238 239 242 244 245 248 250 253 255 257 260 263 265 265 266 267 267 266 267 268 270 273 276 278 280 282 283 284 284 283 284
202 206 212 213 215 219 223 226 230 234 236 238 240 243 243 246 249 251 253 255 257 258 260 262 264 266 267 268 269 269 268 268 269 269 270 273 276 277 279 281 281 280 282 283
213 215 216 220 226 231 235 237 239 241 244 247 249 250 251 252 254 256 257 259 261 264 265 267 268 270 271 271 272 272 271 271 271 270 271 272 275 276 277 279 279 279 281 281
233 226 227 230 233 236 241 244 247 249 251 253 254 256 258 260 260 261 262 264 266 269 270 270 273 274 275 275 274 275 275 274 273 273 274 274 276 276 276 278 278 280 281 280
5 311 257 247 247 249 249 252 255 256 257 257 258 261 262 265 266 266 267 268 271 272 273 274 278 279 279 281 278 277 278 277 277 276 277 277 277 277 277 279 279 280 279 277
353 340 313 283 266 262 262 263 263 263 262 261 261 262 264 266 266 268 271 273 275 274 276 278 279 279 280 282 280 278 277 274 273 275 275 275 277 278 278 279 279 278 277 276
346 339 324 303 287 278 279 272 270 270 267 266 265 265 266 268 270 271 272 272 275 276 277 277 278 278 280 280 278 276 276 276 276 276 275 276 276 277 278 278 278 277 277 279
344 338 328 315 303 294 284 280 278 276 274 273 271 269 269 270 271 272 272 272 272 273 274 274 273 272 274 276 276 277 279 280 279 279 280 280 280 281 282 282 283 283 283 283
353 347 338 329 318 309 301 293 288 286 283 280 277 275 274 272 270 272 273 273 273 273 274 274 274 273 274 276 277 279 281 282 283 284 285 286 287 288 288 288 288 287 287 287
356 352 345 337 328 320 314 308 303 296 293 289 286 283 278 272 271 273 274 273 273 275 276 277 277 277 279 282 283 284 285 287 289 291 291 292 292 293 292 292 291 290 290 290
354 351 347 342 335 328 323 318 312 307 301 295 291 288 285 280 274 274 276 276 276 277 278 280 283 285 287 289 290 291 292 294 295 296 297 298 299 299 299 297 296 294 293 293
356 352 349 346 341 336 331 325 321 316 310 302 296 291 287 285 282 280 282 282 282 284 287 290 292 293 295 297 298 298 300 301 303 305 306 305 305 305 305 303 302 301 299 298
358 354 350 347 344 340 335 328 323 321 318 314 308 302 298 295 291 288 290 292 295 297 298 299 300 301 304 304 305 306 307 308 309 311 312 313 313 313 313 312 310 308 306 305
358 355 352 350 346 341 338 332 326 322 320 319 314 308 304 301 299 299 301 305 308 309 310 311 312 312 312 312 312 313 313 315 316 318 320 322 323 323 323 322 321 319 317 316
358 356 354 352 349 345 341 337 332 325 321 320 317 313 310 307 307 311 314 317 319 320 320 319 317 316 318 318 317 318 321 322 324 325 327 329 330 331 333 334 333 332 330 330
Height
5760 5765 5769 5773 5778 5783 5789 5794 5800 5804 5808 5812 5816 5821 5824 5826 5830 5834 5838 5842 5847 5851 5855 5858 5861 5863 5864 5866 5868 5870 5872 5873 5873 5874 5875 5874 5873 5872 5871 5871 5870 5870 5868 5867
5758 5761 5765 5769 5774 5779 5784 5790 5795 5800 5804 5808 5813 5817 5821 5823 5826 5830 5834 5838 5843 5847 5851 5854 5857 5859 5860 5862 5864 5866 5868 5869 5869 5869 5869 5869 5867 5865 5865 5865 5865 5864 5862 5861
5754 5758 5761 5765 5770 5775 5780 5786 5791 5796 5800 5804 5809 5813 5817 5819 5822 5826 5829 5834 5838 5843 5846 5849 5852 5854 5856 5858 5860 5862 5863 5863 5864 5864 5864 5862 5861 5860 5860 5859 5859 5858 5856 5855
5751 5754 5758 5762 5766 5771 5777 5782 5786 5791 5796 5800 5806 5809 5812 5815 5818 5822 5825 5829 5833 5837 5841 5844 5847 5849 5851 5853 5855 5856 5857 5858 5858 5858 5858 5857 5856 5855 5854 5852 5851 5850 5849 5847
5748 5751 5755 5759 5764 5768 5773 5777 5782 5787 5792 5797 5801 5806 5809 5811 5814 5818 5821 5825 5829 5832 5836 5839 5842 5844 5846 5848 5850 5851 5851 5852 5852 5852 5851 5850 5849 5848 5847 5845 5844 5843 5842 5840
5745 5748 5752 5757 5760 5765 5769 5774 5779 5784 5789 5794 5798 5802 5806 5808 5811 5814 5818 5821 5824 5828 5831 5834 5836 5839 5840 5842 5843 5844 5845 5845 5845 5844 5843 5842 5841 5840 5838 5836 5834 5834 5833 5832
5743 5746 5750 5754 5758 5763 5767 5772 5777 5781 5785 5790 5794 5798 5802 5805 5808 5811 5814 5817 5820 5823 5826 5828 5830 5832 5834 5835 5836 5837 5837 5837 5837 5837 5836 5835 5833 5832 5830 5828 5826 5825 5824 5824
5741 5745 5748 5752 5757 5761 5765 5770 5775 5779 5783 5787 5790 5793 5798 5801 5804 5807 5810 5812 5815 5818 5820 5822 5824 5825 5827 5828 5828 5829 5829 5829 5829 5829 5828 5827 5825 5822 5821 5820 5818 5817 5816 5815
5740 5744 5747 5751 5755 5759 5763 5767 5772 5776 5779 5783 5786 5789 5793 5796 5799 5802 5804 5807 5809 5812 5814 5816 5817 5818 5819 5820 5821 5821 5820 5821 5820 5819 5818 5818 5815 5813 5812 5811 5809 5808 5808 5807
5740 5743 5747 5750 5754 5758 5762 5765 5769 5772 5775 5778 5781 5784 5787 5790 5793 5796 5798 5801 5803 5805 5807 5809 5810 5811 5812 5812 5813 5812 5812 5811 5810 5810 5809 5808 5807 5805 5804 5803 5802 5800 5799 5799
5741 5744 5747 5750 5753 5756 5760 5763 5766 5769 5771 5775 5777 5782 5782 5785 5787 5789 5791 5794 5795 5797 5799 5800 5801 5802 5803 5803 5803 5803 5803 5802 5802 5801 5800 5799 5798 5796 5795 5794 5793 5791 5790 5789
5743 5745 5747 5749 5752 5755 5758 5760 5763 5766 5768 5770 5772 5777 5776 5778 5780 5782 5784 5786 5788 5789 5790 5791 5792 5793 5793 5793 5793 5793 5793 5792 5792 5791 5791 5790 5789 5787 5785 5784 5783 5781 5780 5778
5743 5745 5747 5749 5753 5755 5756 5758 5760 5763 5764 5766 5768 5772 5771 5772 5773 5775 5776 5777 5779 5780 5781 5782 5782 5783 5783 5783 5783 5782 5782 5782 5781 5781 5780 5780 5779 5777 5775 5774 5772 5770 5768 5767
5743 5744 5747 5749 5751 5752 5754 5756 5757 5759 5760 5761 5763 5764 5765 5766 5767 5767 5768 5769 5770 5771 5772 5772 5773 5773 5773 5773 5772 5772 5771 5771 5771 5770 5769 5768 5767 5766 5764 5763 5761 5759 5757 5755
5743 5744 5745 5746 5748 5750 5751 5752 5754 5755 5755 5757 5757 5758 5758 5759 5760 5760 5761 5761 5762 5762 5763 5763 5763 5763 5763 5762 5762 5761 5760 5760 5760 5759 5757 5756 5755 5754 5752 5751 5749 5747 5745 5743
5744 5744 5744 5745 5746 5747 5748 5749 5749 5750 5750 5750 5751 5751 5751 5751 5752 5752 5753 5753 5753 5754 5754 5754 5754 5753 5753 5752 5751 5751 5750 5749 5748 5747 5746 5745 5743 5742 5740 5738 5736 5734 5732 5729
5744 5744 5744 5744 5744 5744 5745 5745 5744 5744 5744 5744 5744 5745 5744 5744 5744 5744 5744 5744 5745 5745 5745 5745 5745 5745 5744 5743 5742 5741 5740 5739 5738 5737 5736 5734 5732 5731 5729 5727 5724 5722 5719 5716
5745 5744 5743 5742 5743 5742 5744 5740 5740 5739 5738 5738 5738 5738 5738 5737 5737 5737 5737 5737 5737 5737 5737 5737 5737 5736 5735 5734 5733 5732 5732 5730 5729 5728 5726 5724 5722 5720 5718 5716 5713 5709 5706 5702
5745 5743 5742 5741 5740 5739 5738 5737 5735 5734 5733 5732 5732 5731 5731 5730 5730 5730 5730 5730 5730 5729 5729 5729 5728 5728 5727 5727 5726 5725 5723 5722 5720 5719 5716 5714 5712 5709 5706 5703 5700 5696 5693 5689
5745 5743 5741 5739 5737 5736 5736 5733 5731 5731 5729 5727 5726 5725 5725 5725 5725 5724 5724 5723 5723 5722 5722 5722 5721 5721 5720 5719 5718 5717 5715 5713 5711 5709 5706 5704 5701 5698 5695 5691 5687 5683 5679 5675
5744 5741 5739 5737 5735 5733 5731 5729 5728 5727 5726 5723 5721 5720 5720 5719 5719 5719 5718 5718 5718 5717 5716 5716 5715 5715 5714 5713 5711 5710 5708 5705 5703 5700 5697 5694 5691 5687 5684 5680 5675 5671 5666 5661
5743 5740 5738 5735 5732 5732 5727 5725 5724 5723 5720 5719 5717 5717 5716 5715 5715 5715 5714 5714 5713 5713 5712 5711 5710 5709 5708 5706 5705 5703 5700 5698 5695 5692 5689 5685 5682 5678 5673 5668 5664 5659 5654 5649
5743 5740 5736 5734 5732 5728 5725 5722 5720 5718 5717 5715 5714 5714 5713 5712 5712 5712 5711 5710 5710 5709 5708 5707 5705 5704 5702 5700 5698 5696 5694 5691 5688 5685 5681 5677 5673 5668 5663 5658 5653 5648 5643 5638
5742 5738 5735 5731 5728 5725 5722 5720 5718 5716 5714 5713 5712 5711 5711 5710 5709 5709 5708 5707 5706 5705 5704 5703 5701 5699 5697 5695 5693 5690 5688 5685 5682 5679 5675 5670 5665 5660 5655 5649 5644 5639 5634 5629
5742 5738 5734 5730 5727 5723 5721 5718 5716 5714 5712 5711 5710 5710 5709 5708 5708 5707 5706 5705 5704 5702 5701 5699 5697 5695 5693 5690 5688 5686 5683 5680 5677 5673 5669 5665 5660 5654 5649 5643 5638 5632 5627 5623
5740 5737 5733 5730 5726 5722 5719 5717 5715 5713 5711 5710 5709 5708 5707 5707 5706 5705 5704 5703 5701 5699 5697 5695 5693 5691 5689 5687 5684 5682 5679 5676 5673 5669 5665 5661 5656 5651 5645 5639 5634 5629 5624 5620